PSLV DEB, 41792

Orbit data source: Space-Track

PSLV DEB, 41792 is space debris in SSO originally from a launch on Mon, 26 Sep 2016 UTC launched from the Sirharikota (SRI). Debris objects in space refer to the collection of defunct objects orbiting the Earth. Examples of debris include non-operational satellites, rocket bodies, and fragments generated from explosions, collisions, or faulty payload assembly.

Loading next visibility...
Identifier
41792, 2016-059K
Orbit
SSO
Country
Flag of ININ / IND
Related business
Manufacturer
VSSC/LPSC
Mission
Spacecraft
Bus & Motor
Unknown
Mass
Unknown
Launch date (UTC)
2016-09-26 (9 years ago)
Launch vehicle
Unknown
Launch site
Sirharikota (SRI)
Object type
Payload
Rocket body
Debris
Shape & HBR
Cone + Cyl, 1.5 m
Radar Cross Section
7.069 m², Large (>1 m²)

Expand to show TLE details & history
Last TLE update: 15 hours ago

TLE from 15 hours ago
0 PSLV DEB
1 41792U 16059K   26037.01341250  .00006216  00000-0  84736-3 0  9994
2 41792  97.7884  62.5318 0020376 213.9290 146.0620 14.78880564501485
Epoch: 2026-02-06T00:19Z
TLE epoch observation values (Epoch: 2026-02-06T00:19:18.839Z)
Latitude
-0.00002°
Longitude
-78.45408°
Altitude
647.747 km
Speed
7.528 km/s
True Right ascension
04h 10m 07s
True Declination
0° 00' 00"
Sunlit
Object was in daylight at epoch
Visualization orbit readout
Latitude
Unknown
Longitude
Unknown
Altitude
Unknown
Speed
Unknown
Apparent Right ascension
Unknown
Apparent Declination
Unknown
Sunlit
N/A
Visualization observer readout
Local Sidereal Time
17:09:01
Azimuth
Unknown
Elevation
Unknown
Doppler factor
Unknown
Orbital elements
Apogee altitude
644.177 km
Perigee altitude
615.618 km
Semi-major axis
7,008.034 km
Eccentricity
0.00204
Inclination
97.7884°
RAAN
62.5318°
Arg. of periapsis
213.929°
True anomaly
146.19208°
Mean anomaly
146.062°
Eccentric anomaly
146.12707°
Mean motion
3.69955 °/min
Orbital period
97.31 mins
BSTAR
0.00084736
Loading maneuver chart data...
Computing Atmospheric mass density...
Loading historical data...
Loading historical data...
Loading historical data...
Loading historical data...
Loading historical data...
Loading historical data...
Loading historical data...

Documentation

Showing up to 5 results
|